GW2838 Weather Reports


time (UTC)temp
C
wind
direction
speed
KPH
gust
KPH
rain 1hr
cm
rain 24hr
cm
rain mn
cm
humidity
%
barometer
mb
20260831233518 28 136 4.8 11.3 0.00 0.08 0.00 73 1040.6
20260831232535 28 145 4.8 12.9 0.00 0.08 0.00 72 1040.7
20260831231531 28 156 6.4 14.5 0.00 0.08 0.00 70 1040.8
20260831230608 28 71 0.0 3.2 0.00 0.08 0.00 69 1040.7
20260831225524 29 59 1.6 3.2 0.00 0.08 0.00 69 1041.0
20260831224540 29 62 3.2 6.4 0.00 0.08 0.00 68 1041.0
20260831223517 30 53 3.2 6.4 0.00 0.08 0.00 67 1041.2
20260831222533 30 65 1.6 3.2 0.00 0.08 0.00 66 1041.2
20260831221529 30 50 1.6 3.2 0.00 0.08 0.00 66 1041.3
20260831220525 30 336 1.6 3.2 0.00 0.08 0.00 65 1041.3
20260831215521 30 327 1.6 3.2 0.00 0.08 0.00 65 1041.3
20260831214517 30 325 1.6 1.6 0.00 0.08 0.00 64 1041.1
20260831213534 30 320 3.2 4.8 0.00 0.08 0.00 64 1041.3
20260831212550 30 326 3.2 4.8 0.00 0.08 0.00 63 1041.2
20260831211607 30 317 3.2 6.4 0.00 0.08 0.00 63 1041.1
20260831210523 31 351 3.2 4.8 0.00 0.08 0.00 62 1041.0
20260831205520 31 358 3.2 6.4 0.00 0.08 0.00 62 1041.2
20260831204516 31 339 1.6 6.4 0.00 0.08 0.00 62 1041.3
20260831203532 31 303 3.2 9.7 0.00 0.08 0.00 63 1041.1
20260831202528 31 1 3.2 9.7 0.00 0.08 0.00 62 1041.2
20260831201525 31 264 1.6 6.4 0.00 0.08 0.00 63 1041.4
20260831200521 31 42 0.0 3.2 0.00 0.08 0.00 62 1041.2
20260831195516 31 293 3.2 9.7 0.00 0.08 0.00 62 1041.3
20260831194532 31 261 4.8 9.7 0.00 0.08 0.00 64 1041.2
20260831193548 31 234 1.6 4.8 0.00 0.08 0.00 64 1041.4
20260831192524 31 322 1.6 4.8 0.00 0.08 0.00 65 1041.6
20260831191520 30 96 1.6 3.2 0.00 0.08 0.00 66 1041.9
20260831190535 30 69 4.8 11.3 0.00 0.08 0.00 65 1041.8
20260831185530 30 103 4.8 11.3 0.00 0.08 0.00 66 1041.9
20260831184526 30 65 3.2 9.7 0.00 0.08 0.00 66 1042.1
20260831183522 30 81 3.2 4.8 0.00 0.08 0.00 68 1041.9
20260831182518 30 35 4.8 11.3 0.00 0.08 0.00 68 1042.0
20260831181555 30 17 4.8 11.3 0.00 0.08 0.00 68 1041.9
20260831180551 30 13 4.8 11.3 0.00 0.08 0.00 68 1041.8
20260831175528 30 59 3.2 4.8 0.00 0.08 0.00 67 1041.9
20260831174524 30 45 4.8 11.3 0.00 0.08 0.00 67 1042.2
20260831173520 30 120 3.2 6.4 0.00 0.08 0.00 67 1042.1
20260831172537 30 53 3.2 9.7 0.00 0.08 0.00 67 1042.4
20260831171533 30 64 4.8 11.3 0.00 0.08 0.00 68 1042.3
20260831170610 29 355 3.2 9.7 0.00 0.08 0.00 69 1042.4
20260831165525 29 12 8.0 12.9 0.00 0.08 0.00 69 1042.5
20260831164522 29 45 4.8 14.5 0.00 0.08 0.00 69 1042.6
20260831163518 29 153 4.8 9.7 0.00 0.08 0.00 70 1042.8
20260831162535 29 54 4.8 11.3 0.00 0.08 0.00 70 1042.9
20260831161612 29 26 9.7 17.7 0.00 0.08 0.00 70 1043.0
20260831160527 29 47 4.8 11.3 0.00 0.08 0.00 70 1042.9
20260831155523 29 102 6.4 14.5 0.00 0.08 0.00 69 1042.6
20260831154519 29 50 6.4 12.9 0.00 0.08 0.00 71 1042.6
20260831153515 28 21 9.7 17.7 0.00 0.08 0.00 71 1042.7
20260831152532 28 96 4.8 12.9 0.00 0.08 0.00 73 1042.6
20260831151528 28 85 6.4 14.5 0.00 0.08 0.00 73 1042.7
20260831150525 28 99 6.4 14.5 0.00 0.08 0.00 74 1042.7
20260831145521 27 100 6.4 11.3 0.00 0.08 0.00 77 1042.8
20260831144517 27 31 8.0 22.5 0.00 0.08 0.00 78 1042.9
20260831143534 26 43 8.0 22.5 0.00 0.08 0.00 78 1042.6
20260831142530 27 20 6.4 14.5 0.00 0.08 0.00 79 1042.6
20260831141526 27 50 6.4 16.1 0.00 0.08 0.00 79 1042.5
20260831140522 27 55 6.4 12.9 0.00 0.08 0.00 79 1042.4
20260831135519 26 46 6.4 12.9 0.00 0.08 0.00 80 1042.6
20260831134535 26 61 6.4 11.3 0.00 0.08 0.00 80 1042.8
20260831132527 27 2 3.2 6.4 0.00 0.08 0.00 77 1042.7
20260831131524 28 91 3.2 9.7 0.00 0.08 0.00 78 1042.7
20260831130520 27 51 4.8 9.7 0.00 0.08 0.00 78 1042.7
20260831125517 27 74 4.8 9.7 0.00 0.08 0.00 81 1042.7
20260831124532 26 41 3.2 4.8 0.00 0.08 0.00 81 1042.6
20260831123529 26 111 3.2 6.4 0.00 0.08 0.00 80 1042.5
20260831122545 26 84 3.2 6.4 0.00 0.08 0.00 83 1042.5
20260831121521 25 54 3.2 4.8 0.00 0.08 0.00 86 1042.5
20260831120518 23 242 1.6 3.2 0.00 0.08 0.00 87 1042.4
20260831115534 23 37 1.6 6.4 0.00 0.08 0.00 88 1042.4
20260831114530 23 0 1.6 3.2 0.00 0.08 0.00 90 1042.4
20260831113526 22 341 1.6 3.2 0.00 0.08 0.00 91 1042.3
20260831112522 22 330 1.6 3.2 0.00 0.08 0.00 91 1042.1
20260831111519 22 0.0 0.0 0.00 0.08 0.00 92 1042.0
20260831110535 22 217 0.0 1.6 0.00 0.08 0.00 92 1041.9
20260831105532 22 317 1.6 3.2 0.00 0.08 0.00 92 1041.9
20260831104528 21 0.0 0.0 0.00 0.08 0.00 92 1041.7
20260831103524 21 337 1.6 3.2 0.00 0.08 0.00 92 1041.5
20260831102520 21 0.0 0.0 0.00 0.08 0.00 92 1041.4
20260831101537 21 0.0 0.0 0.00 0.08 0.00 92 1041.5
20260831100533 21 0.0 0.0 0.00 0.08 0.00 92 1041.6
20260831095529 21 0.0 0.0 0.00 0.08 0.00 91 1041.5
20260831094525 21 0.0 0.0 0.00 0.08 0.00 91 1041.4
20260831093522 21 0.0 0.0 0.00 0.08 0.00 91 1041.5
20260831092538 21 233 0.0 1.6 0.00 0.08 0.00 91 1041.5
20260831091534 21 0.0 0.0 0.00 0.08 0.00 91 1041.2
20260831090531 21 0.0 0.0 0.00 0.08 0.00 92 1041.2
20260831085528 21 345 1.6 3.2 0.00 0.08 0.00 92 1041.2
20260831084523 22 43 1.6 3.2 0.00 0.08 0.00 92 1041.3
20260831083520 22 0.0 0.0 0.00 0.08 0.00 92 1041.2
20260831082516 22 0.0 0.0 0.00 0.08 0.00 92 1041.4
20260831081533 22 18 1.6 3.2 0.00 0.08 0.00 92 1041.5
20260831080529 22 356 1.6 4.8 0.00 0.08 0.00 92 1041.3
20260831075525 22 345 1.6 3.2 0.00 0.08 0.00 92 1041.2
20260831074522 22 0.0 0.0 0.00 0.08 0.00 92 1041.2
20260831073559 22 358 1.6 3.2 0.00 0.08 0.00 92 1041.2
20260831072555 22 0.0 0.0 0.00 0.08 0.00 92 1041.2
20260831071530 22 0.0 0.0 0.00 0.08 0.00 92 1041.2
20260831070527 22 0.0 0.0 0.00 0.08 0.00 92 1041.2
20260831065523 22 0.0 0.0 0.00 0.08 0.00 92 1041.4
20260831064520 22 0.0 0.0 0.00 0.08 0.00 91 1041.3
20260831063516 22 0.0 0.0 0.00 0.08 0.00 91 1041.5
20260831062532 22 0.0 0.0 0.00 0.08 0.00 91 1041.5
20260831061529 22 0.0 0.0 0.00 0.08 0.00 91 1041.5
20260831060525 22 0.0 0.0 0.00 0.08 0.00 91 1041.7
20260831055522 22 0.0 0.0 0.00 0.08 0.00 91 1041.7
20260831054517 22 0.0 0.0 0.00 0.08 0.00 91 1041.7
20260831053534 22 342 1.6 1.6 0.00 0.08 0.00 90 1041.8
20260831052530 22 0.0 0.0 0.00 0.08 0.00 90 1041.8
20260831051526 22 0.0 0.0 0.00 0.08 0.00 90 1041.7
20260831050523 22 269 1.6 3.2 0.00 0.08 0.00 90 1041.7
20260831045539 22 205 1.6 3.2 0.00 0.08 0.00 90 1042.1
20260831044536 22 171 0.0 3.2 0.00 0.08 0.00 90 1042.0
20260831043532 22 182 0.0 3.2 0.00 0.08 0.00 89 1041.8
20260831042528 22 0.0 0.0 0.00 0.08 0.00 89 1041.8
20260831041524 22 0.0 0.0 0.00 0.08 0.00 88 1041.9
20260831040520 23 0.0 0.0 0.00 0.08 0.00 88 1042.0
20260831035517 23 0.0 0.0 0.00 0.08 0.08 88 1041.9
20260831034534 23 0.0 0.0 0.00 0.08 0.08 88 1041.9
20260831033530 23 0.0 0.0 0.00 0.08 0.08 88 1041.9
20260831032526 23 0.0 0.0 0.00 0.08 0.08 88 1041.8
20260831031522 23 0.0 0.0 0.00 0.08 0.08 87 1041.9
20260831030519 23 0.0 0.0 0.00 0.08 0.08 87 1041.9
20260831025535 23 0.0 0.0 0.00 0.08 0.08 87 1042.0
20260831024532 23 17 0.0 1.6 0.00 0.08 0.08 87 1042.2
20260831023528 23 0.0 0.0 0.00 0.08 0.08 87 1042.4
20260831022524 23 0.0 0.0 0.00 0.08 0.08 85 1042.4
20260831021520 23 8 1.6 4.8 0.00 0.08 0.08 86 1042.3
20260831020517 23 263 0.0 1.6 0.00 0.08 0.08 85 1042.5
20260831015533 23 0.0 0.0 0.00 0.08 0.08 84 1042.4
20260831014550 23 279 1.6 4.8 0.00 0.08 0.08 85 1042.3
20260831013525 23 285 6.4 11.3 0.00 0.08 0.08 84 1042.4
20260831012522 23 270 1.6 3.2 0.03 0.08 0.08 84 1042.1
20260831011518 23 242 1.6 4.8 0.08 0.08 0.08 84 1042.0
20260831010535 24 214 1.6 6.4 0.08 0.08 0.08 83 1042.1
20260831005530 24 242 4.8 12.9 0.08 0.08 0.08 83 1042.2
20260831004527 25 242 6.4 25.7 0.08 0.08 0.08 82 1042.0
20260831003523 25 248 9.7 22.5 0.08 0.08 0.08 81 1042.0
20260831002519 27 239 11.3 29.0 0.05 0.05 0.05 77 1042.1
20260831001556 28 227 12.9 30.6 0.00 0.00 0.00 72 1041.9
20260831000532 28 184 8.0 14.5 0.00 0.00 0.00 69 1041.7
20260830235528 28 197 6.4 14.5 0.00 0.00 0.00 66 1041.8
20260830234525 28 176 6.4 12.9 0.00 0.00 0.00 66 1041.6